Flag for U.S.A. Weather past 2 weeks in Seattle, Washington, U.S.A.

Now
59 °F

Mostly cloudy.


Feels Like: 57 °F
Forecast: 54 / 58 °F
Wind: 10 mph from Southeast

Location: Seattle Boeing Field

Current Time: Oct 22, 2014 at 12:55:20 AM

Latest Report: Oct 21, 2014 at 11:53 PM


Visibility: 10 mi

Pressure: 29.73 "Hg

Humidity: 62%

Dew point: 46 °F

Location of SeattleLocation

Historic Weather in Seattle — Graph

°F

Seattle temperature yesterday

Maximum temperature yesterday: 63 °F (at 11:53 AM)
Minimum temperature yesterday: 55 °F (at 5:53 AM)
Average temperature yesterday: 59 °F

Past Weeks' High & Low Weather Summary

 TemperatureHumidityPressure
High74 °F (Oct 19, 2:53 PM)94% (Oct 10, 5:01 AM)30.25 "Hg (Oct 10, 5:01 AM)
Low52 °F (Oct 16, 2:53 AM)37% (Oct 16, 2:53 PM)29.51 "Hg (Oct 15, 4:53 AM)
Average61 °F76%29.90 "Hg
* Reported Oct 6 10:53 PM — Oct 21 10:53 PM, Seattle, Weather by CustomWeather, © 2014

Note: Actual official high and low records may vary slightly from our data, if they occured in-between our weather recording intervals... More about our weather records

Advertising

Seattle weather history for previous 24 hours

 ConditionsComfort  
Time TempWeatherWind HumidityBarometerVisibility
10:53 PM
Oct 21
61 °FOvercast.9 mph58%29.76 "Hg10 mi
9:53 PM60 °FLight rain. Overcast.10 mph65%29.78 "Hg10 mi
8:53 PM61 °FPassing clouds.9 mph60%29.80 "Hg10 mi
7:53 PM61 °FMostly cloudy.12 mph60%29.82 "Hg10 mi
6:53 PM62 °FOvercast.14 mph58%29.85 "Hg10 mi
5:53 PM62 °FOvercast.14 mph60%29.86 "Hg10 mi
4:53 PM61 °FMostly cloudy.8 mph67%29.88 "Hg10 mi
3:53 PM60 °FLight rain. Mostly cloudy.13 mph69%29.89 "Hg10 mi
2:53 PM60 °FLight rain. More clouds than sun.15 mph69%29.90 "Hg10 mi
1:53 PM61 °FMostly cloudy.12 mph70%29.91 "Hg10 mi
12:53 PM62 °FMostly cloudy.8 mph62%29.92 "Hg10 mi
11:53 AM63 °FBroken clouds.9 mph63%29.92 "Hg10 mi
10:53 AM62 °FBroken clouds.10 mph62%29.92 "Hg10 mi
9:53 AM60 °FSunny.14 mph69%29.91 "Hg10 mi
8:53 AM58 °FPartly sunny.9 mph78%29.89 "Hg10 mi
7:53 AM57 °FPartly cloudy.13 mph78%29.87 "Hg10 mi
6:53 AM56 °FLight rain. Mostly cloudy.8 mph81%29.86 "Hg6 mi
5:53 AM55 °FPassing clouds.8 mph83%29.84 "Hg10 mi
4:53 AM56 °FMostly cloudy.6 mph84%29.83 "Hg10 mi
3:53 AM57 °FLight rain. Mostly cloudy.No wind81%29.83 "Hg10 mi
2:53 AM56 °FMostly cloudy.No wind87%29.82 "Hg10 mi
1:53 AM57 °FLight rain. Mostly cloudy.6 mph81%29.82 "Hg9 mi
12:53 AM57 °FOvercast.7 mph83%29.81 "Hg10 mi
Weather by CustomWeather, © 2014

See weather overviewHow to use our weather pages